Flag for U.S.A. Weather past 2 weeks in Provo, Utah, U.S.A.

Now
37 °F

Scattered clouds.


Feels Like: 33 °F
Forecast: 31 / 45 °F
Wind: 6 mph from North

Location: Provo Municipal

Current Time: Jan 29, 2015 at 12:32:21 PM

Latest Report: Jan 29, 2015 at 11:50 AM


Visibility: 7 mi

Pressure: 30.35 "Hg

Humidity: 75%

Dew point: 30 °F

Location of ProvoLocation

Historic Weather in Provo — Graph

°F

Provo temperature yesterday

Maximum temperature yesterday: 48 °F (at 12:52 PM)
Minimum temperature yesterday: 34 °F (at 11:35 PM)
Average temperature yesterday: 41 °F

Past Weeks' High & Low Weather Summary

 TemperatureHumidityPressure
High54 °F (Jan 18, 1:47 PM)100% (Jan 17, 1:15 AM)30.54 "Hg (Jan 17, 1:15 AM)
Low18 °F (Jan 22, 5:35 AM)38% (Jan 18, 1:47 PM)30.17 "Hg (Jan 16, 12:50 PM)
Average31 °F79%30.35 "Hg
* Reported Jan 14 10:52 AM — Jan 29 10:47 AM, Provo, Weather by CustomWeather, © 2014

Note: Actual official high and low records may vary slightly from our data, if they occured in-between our weather recording intervals... More about our weather records

Advertising

Provo weather history for previous 24 hours

 ConditionsComfort  
Time TempWeatherWind HumidityBarometerVisibility
10:47 AM
Jan 29
37 °FFog.3 mph75%30.38 "Hg3 mi
9:47 AM34 °FFog.No wind87%30.38 "Hg1 mi
8:52 AM32 °FIce fog.No wind93%30.36 "Hg2 mi
7:52 AM28 °FIce fog.No wind100%30.36 "Hg5 mi
6:47 AM28 °FClear.No wind86%30.35 "Hg7 mi
6:35 AM27 °FClear.3 mph93%30.35 "Hg2 mi
6:15 AM28 °FClear.No wind93%30.35 "Hg2 mi
5:55 AM28 °FClear.No wind93%30.36 "Hg3 mi
5:35 AM28 °FClear.3 mph93%30.36 "Hg2 mi
5:15 AM28 °FClear.No wind93%30.37 "Hg2 mi
4:55 AM28 °FClear.3 mph93%30.37 "Hg2 mi
4:35 AM34 °FClear.No wind87%30.37 "Hg3 mi
4:15 AM34 °FClear.3 mph87%30.38 "Hg3 mi
3:55 AM32 °FClear.3 mph87%30.38 "Hg2 mi
3:35 AM30 °FClear.6 mph93%30.38 "Hg2 mi
3:15 AM30 °FClear.No wind93%30.39 "Hg2 mi
2:55 AM32 °FClear.No wind87%30.38 "Hg3 mi
2:35 AM30 °FClear.3 mph93%30.37 "Hg4 mi
2:15 AM32 °FClear.6 mph87%30.37 "Hg4 mi
1:55 AM34 °FClear.5 mph81%30.37 "Hg4 mi
1:35 AM34 °FClear.5 mph87%30.37 "Hg4 mi
1:15 AM34 °FClear.3 mph87%30.37 "Hg3 mi
12:55 AM30 °FClear.5 mph93%30.37 "Hg3 mi
12:35 AM30 °FClear.3 mph86%30.37 "Hg3 mi
12:15 AM32 °FClear.3 mph87%30.37 "Hg5 mi
11:55 PM
Jan 28
34 °FClear.No wind81%30.36 "Hg5 mi
11:35 PM34 °FClear.No wind87%30.36 "Hg6 mi
10:55 PM36 °FClear.7 mph81%30.36 "Hg5 mi
10:35 PM37 °FClear.3 mph81%30.35 "Hg9 mi
10:15 PM37 °FPassing clouds.5 mph87%30.35 "Hg10 mi
9:55 PM37 °FPassing clouds.8 mph81%30.35 "Hg9 mi
9:35 PM39 °FOvercast.6 mph81%30.34 "Hg9 mi
9:15 PM39 °FOvercast.10 mph81%30.34 "Hg8 mi
8:55 PM39 °FPassing clouds.12 mph81%30.33 "Hg10 mi
7:59 PM41 °FPassing clouds.14 mph76%30.32 "Hg10 mi
6:53 PM43 °FPassing clouds.12 mph71%30.31 "Hg10 mi
5:47 PM43 °FMostly cloudy.12 mph71%30.29 "Hg10 mi
4:48 PM45 °FPartly sunny.12 mph66%30.28 "Hg10 mi
3:50 PM46 °FPartly sunny.12 mph66%30.27 "Hg10 mi
2:55 PM48 °FPartly sunny.9 mph62%30.28 "Hg10 mi
1:50 PM46 °FMore clouds than sun.10 mph66%30.28 "Hg10 mi
12:52 PM48 °FCloudy.3 mph62%30.29 "Hg10 mi
Weather by CustomWeather, © 2014

See weather overviewHow to use our weather pages